Location: ??????
(56.0120°N, 39.1740°E)
Time: 15:51:12
(UTC+00:00)

Cosmos 1943 - Pass Details

Date: 14 April 2026
Orbit: 832 x 847 km, 71.0° (Epoch: 17 May)

Event Time Altitude Azimuth Distance (km) Brightness Sun altitude
Exits shadow 22:34:08 18° 266° (W) 1,967 4.9 -22.7°
Maximum altitude 22:37:45 36° 323° (NW) 1,325 4.4 -22.5°
Drops below altitude 10° 22:42:58 10° 29° (NNE) 2,476 6.8 -22.3°
Sets 22:45:38 0° 38° (NE) 3,411 7.7 -22.1°
